When you browse on this site, cookies collect data to enhance your experience and personalize the content and advertising you see.
Visit our Privacy Policy to learn more. By continuing to use the site, you agree to this use of cookies and data.
  • în România
  • Lista ţărilor
  • Pe 7 zile
  • Temperatura apei
  • Hartă satelitară
  • Meteo pe hartă
  • Widget-uri
  • user-avatar
    Intrare

    Meteo pe oră la Arredondo

    Astăzi, 25 Aprilie, Joi

    Timp Temperatura Precipitaţii Vânt Presiune Umiditate
    00:00 +6°C° 0.5 mm 2 m/s 697 mmHg 90%
    01:00 +6°C° 0.3 mm 2 m/s 698 mmHg 86%
    02:00 +5°C° 0.3 mm 3 m/s 698 mmHg 83%
    03:00 +5°C° 0.3 mm 3 m/s 698 mmHg 79%
    04:00 +5°C° 0 mm 4 m/s 699 mmHg 78%
    05:00 +5°C° 0 mm 4 m/s 699 mmHg 76%
    06:00 +3°C° 0 mm 5 m/s 699 mmHg 74%
    07:00 +6°C° 0 mm 5 m/s 700 mmHg 67%
    08:00 +7°C° 0 mm 5 m/s 700 mmHg 60%
    09:00 +9°C° 0 mm 5 m/s 701 mmHg 54%
    10:00 +10°C° 0.1 mm 5 m/s 701 mmHg 51%
    11:00 +12°C° 0.1 mm 5 m/s 702 mmHg 48%
    12:00 +12°C° 0.1 mm 4 m/s 702 mmHg 46%
    13:00 +12°C° 0.3 mm 4 m/s 702 mmHg 48%
    14:00 +12°C° 0.3 mm 4 m/s 702 mmHg 50%
    15:00 +12°C° 0.3 mm 3 m/s 702 mmHg 52%
    16:00 +11°C° 0.1 mm 3 m/s 702 mmHg 55%
    17:00 +11°C° 0.1 mm 3 m/s 703 mmHg 58%
    18:00 +10°C° 0.1 mm 3 m/s 703 mmHg 61%
    19:00 +8°C° 0.2 mm 3 m/s 703 mmHg 70%
    20:00 +7°C° 0.2 mm 3 m/s 704 mmHg 78%
    21:00 +4°C° 0.2 mm 3 m/s 704 mmHg 87%
    22:00 +4°C° 0 mm 3 m/s 705 mmHg 87%
    23:00 +3°C° 0 mm 3 m/s 706 mmHg 88%

    Mâine, 26 Aprilie, Vineri

    Timp Temperatura Precipitaţii Vânt Presiune Umiditate
    00:00 +3°C° 0 mm 3 m/s 706 mmHg 88%
    01:00 +4°C° 0.1 mm 4 m/s 707 mmHg 87%
    02:00 +4°C° 0.1 mm 4 m/s 708 mmHg 86%
    03:00 +5°C° 0.1 mm 4 m/s 709 mmHg 84%
    04:00 +5°C° 0.1 mm 4 m/s 709 mmHg 84%
    05:00 +4°C° 0.1 mm 4 m/s 710 mmHg 84%
    06:00 +4°C° 0.1 mm 4 m/s 711 mmHg 84%
    07:00 +6°C° 0 mm 4 m/s 712 mmHg 75%
    08:00 +8°C° 0 mm 4 m/s 712 mmHg 67%
    09:00 +9°C° 0 mm 5 m/s 713 mmHg 59%
    10:00 +10°C° 0 mm 5 m/s 714 mmHg 56%
    11:00 +12°C° 0 mm 5 m/s 714 mmHg 54%
    12:00 +12°C° 0 mm 5 m/s 715 mmHg 52%
    13:00 +12°C° 0 mm 5 m/s 715 mmHg 56%
    14:00 +12°C° 0 mm 5 m/s 715 mmHg 59%
    15:00 +11°C° 0 mm 4 m/s 715 mmHg 63%
    16:00 +10°C° 0 mm 4 m/s 715 mmHg 68%
    17:00 +8°C° 0 mm 4 m/s 715 mmHg 74%
    18:00 +8°C° 0 mm 3 m/s 715 mmHg 79%
    19:00 +8°C° 0 mm 3 m/s 716 mmHg 82%
    20:00 +7°C° 0 mm 2 m/s 717 mmHg 84%
    21:00 +7°C° 0 mm 2 m/s 717 mmHg 86%
    22:00 +6°C° 0 mm 2 m/s 717 mmHg 89%
    23:00 +5°C° 0 mm 2 m/s 717 mmHg 92%

    Poimâine, 27 Aprilie, Sâmbătă

    Timp Temperatura Precipitaţii Vânt Presiune Umiditate
    00:00 +4°C° 0 mm 2 m/s 717 mmHg 94%
    01:00 +4°C° 0 mm 2 m/s 717 mmHg 94%
    02:00 +4°C° 0 mm 2 m/s 717 mmHg 94%
    03:00 +4°C° 0 mm 2 m/s 717 mmHg 94%
    04:00 +4°C° 0 mm 2 m/s 717 mmHg 92%
    05:00 +4°C° 0 mm 2 m/s 717 mmHg 90%
    06:00 +4°C° 0 mm 2 m/s 717 mmHg 88%
    07:00 +7°C° 0 mm 2 m/s 717 mmHg 81%
    08:00 +9°C° 0 mm 2 m/s 717 mmHg 73%
    09:00 +12°C° 0 mm 2 m/s 718 mmHg 66%
    10:00 +12°C° 0 mm 2 m/s 718 mmHg 69%
    11:00 +12°C° 0 mm 2 m/s 718 mmHg 72%
    12:00 +12°C° 0 mm 2 m/s 718 mmHg 74%
    13:00 +12°C° 0.1 mm 2 m/s 718 mmHg 76%
    14:00 +12°C° 0.1 mm 2 m/s 718 mmHg 78%
    15:00 +12°C° 0.1 mm 2 m/s 718 mmHg 80%
    16:00 +12°C° 0.1 mm 2 m/s 718 mmHg 83%
    17:00 +10°C° 0.1 mm 2 m/s 718 mmHg 86%
    18:00 +10°C° 0.1 mm 2 m/s 717 mmHg 89%
    19:00 +9°C° 0 mm 2 m/s 718 mmHg 92%
    20:00 +9°C° 0 mm 1 m/s 718 mmHg 94%
    21:00 +9°C° 0 mm 1 m/s 719 mmHg 96%
    22:00 +8°C° 0 mm 1 m/s 718 mmHg 97%
    23:00 +6°C° 0 mm 0 m/s 718 mmHg 97%

    28 Aprilie, Duminică

    Timp Temperatura Precipitaţii Vânt Presiune Umiditate
    00:00 +6°C° 0 mm 0 m/s 718 mmHg 98%
    01:00 +5°C° 0 mm 0 m/s 718 mmHg 98%
    02:00 +5°C° 0 mm 0 m/s 717 mmHg 98%
    03:00 +5°C° 0 mm 0 m/s 717 mmHg 98%
    04:00 +4°C° 0 mm 0 m/s 717 mmHg 98%
    05:00 +4°C° 0 mm 0 m/s 717 mmHg 97%
    06:00 +4°C° 0 mm 0 m/s 716 mmHg 97%
    07:00 +7°C° 0 mm 1 m/s 716 mmHg 87%
    08:00 +9°C° 0 mm 1 m/s 716 mmHg 77%
    09:00 +11°C° 0 mm 1 m/s 716 mmHg 66%
    10:00 +12°C° 0 mm 2 m/s 716 mmHg 61%
    11:00 +14°C° 0 mm 2 m/s 716 mmHg 55%
    12:00 +15°C° 0 mm 2 m/s 715 mmHg 50%
    13:00 +14°C° 0 mm 3 m/s 715 mmHg 51%
    14:00 +14°C° 0 mm 3 m/s 714 mmHg 52%
    15:00 +14°C° 0 mm 3 m/s 714 mmHg 53%
    16:00 +13°C° 0 mm 3 m/s 713 mmHg 59%
    17:00 +13°C° 0 mm 2 m/s 713 mmHg 65%
    18:00 +12°C° 0 mm 2 m/s 713 mmHg 70%
    19:00 +9°C° 0 mm 2 m/s 713 mmHg 78%
    20:00 +7°C° 0 mm 2 m/s 713 mmHg 86%
    21:00 +6°C° 0 mm 1 m/s 713 mmHg 94%
    22:00 +5°C° 0 mm 1 m/s 712 mmHg 94%
    23:00 +4°C° 0 mm 2 m/s 712 mmHg 94%

    29 Aprilie, Luni

    Timp Temperatura Precipitaţii Vânt Presiune Umiditate
    00:00 +4°C° 0 mm 2 m/s 712 mmHg 94%
    01:00 +4°C° 0 mm 2 m/s 711 mmHg 92%
    02:00 +4°C° 0 mm 2 m/s 711 mmHg 90%
    03:00 +4°C° 0 mm 2 m/s 711 mmHg 88%
    04:00 +4°C° 0 mm 2 m/s 711 mmHg 83%
    05:00 +4°C° 0 mm 2 m/s 710 mmHg 79%
    06:00 +5°C° 0 mm 2 m/s 710 mmHg 75%
    07:00 +8°C° 0 mm 2 m/s 711 mmHg 64%
    08:00 +12°C° 0 mm 2 m/s 711 mmHg 53%
    09:00 +15°C° 0 mm 2 m/s 711 mmHg 42%
    10:00 +17°C° 0 mm 2 m/s 711 mmHg 40%
    11:00 +18°C° 0 mm 2 m/s 711 mmHg 39%
    12:00 +19°C° 0 mm 2 m/s 711 mmHg 37%
    13:00 +19°C° 0 mm 3 m/s 711 mmHg 40%
    14:00 +19°C° 0 mm 3 m/s 710 mmHg 44%
    15:00 +18°C° 0 mm 3 m/s 710 mmHg 47%
    16:00 +17°C° 0 mm 3 m/s 710 mmHg 55%
    17:00 +16°C° 0 mm 2 m/s 709 mmHg 62%
    18:00 +14°C° 0 mm 2 m/s 709 mmHg 70%
    19:00 +12°C° 0 mm 2 m/s 709 mmHg 78%
    20:00 +9°C° 0 mm 2 m/s 709 mmHg 86%
    21:00 +8°C° 0 mm 1 m/s 710 mmHg 94%
    22:00 +8°C° 0 mm 1 m/s 710 mmHg 93%
    23:00 +7°C° 0 mm 1 m/s 709 mmHg 92%

    30 Aprilie, Marţi

    Timp Temperatura Precipitaţii Vânt Presiune Umiditate
    00:00 +7°C° 0 mm 1 m/s 709 mmHg 91%
    01:00 +7°C° 0 mm 1 m/s 709 mmHg 87%
    02:00 +7°C° 0 mm 1 m/s 709 mmHg 84%
    03:00 +7°C° 0 mm 1 m/s 708 mmHg 80%
    04:00 +7°C° 0 mm 1 m/s 708 mmHg 76%
    05:00 +6°C° 0 mm 2 m/s 708 mmHg 72%
    06:00 +7°C° 0 mm 2 m/s 708 mmHg 69%
    07:00 +10°C° 0 mm 2 m/s 709 mmHg 61%
    08:00 +14°C° 0 mm 2 m/s 709 mmHg 53%
    09:00 +17°C° 0 mm 2 m/s 709 mmHg 45%
    10:00 +18°C° 0 mm 2 m/s 709 mmHg 44%
    11:00 +19°C° 0 mm 2 m/s 709 mmHg 43%
    12:00 +20°C° 0 mm 3 m/s 709 mmHg 41%
    13:00 +20°C° 0 mm 3 m/s 708 mmHg 43%
    14:00 +20°C° 0 mm 3 m/s 708 mmHg 45%
    15:00 +20°C° 0 mm 3 m/s 708 mmHg 47%
    16:00 +19°C° 0 mm 2 m/s 707 mmHg 55%
    17:00 +17°C° 0 mm 2 m/s 707 mmHg 62%
    18:00 +16°C° 0 mm 2 m/s 707 mmHg 69%
    19:00 +14°C° 0.2 mm 1 m/s 707 mmHg 76%
    20:00 +12°C° 0.2 mm 1 m/s 707 mmHg 83%
    21:00 +11°C° 0.2 mm 1 m/s 707 mmHg 91%
    22:00 +11°C° 0.5 mm 1 m/s 707 mmHg 92%
    23:00 +11°C° 0.5 mm 1 m/s 706 mmHg 92%
    Arată mai mult